Regional Weather Roundup
Issued by NWS

Home | Current Version | Previous Version | Graphics & Text | Print | Product List | Glossary On
Versions: 1 2 3 4 5 6 7 8 9 10 11 12 13 14 15 16 17 18 19 20 21 22 23 24 25 26 27 28 29 30 31 32 33 34 35 36 37 38 39 40 41 42 43 44 45 46 47 48 49 50
000
ASUS45 KABQ 301401
RWRNM
NEW MEXICO REGIONAL WEATHER ROUNDUP
NATIONAL WEATHER SERVICE ALBUQUERQUE NM
800 AM MDT THU MAR 30 2017

NOTE: "FAIR" MEANS FEW OR NO CLOUDS BELOW 12,000 FEET AGL WITH NO
       SIGNIFICANT WEATHER OR OBSTRUCTIONS TO VISION.

      THIS PRODUCT IS RELEASED AS TWO VERSIONS.  ONE VERSION NEAR
      THE TOP OF THE HOUR CONTAINING PRELIMINARY DATA FROM ALBUQUERQUE
      AND OTHER STATIONS.  A FINAL VERSION WITH ADDITIONAL DATA IS
      ISSUED ABOUT 10 MINUTES AFTER THE HOUR.

NMZ501-503-504-510>518-301500-
NORTHWEST PLATEAU/NORTHCENTRAL MOUNTAINS

CITY           SKY/WX    TMP DP  RH WIND       PRES   REMARKS
FARMINGTON     FAIR      35  24  64 E7        29.98S WCI  29
LOS ALAMOS     FAIR      36  36 100 CALM      30.03R
SANTA FE       FAIR      31  31 100 N6        30.01R WCI  25
TAOS             N/A     27  19  74 N3        30.03S
ANGEL FIRE     FAIR      33  28  81 SW5       30.02R WCI  28

$$
NMZ402-403-502-505>509-301500-
WESTCENTRAL MOUNTAINS/SOUTHWEST MOUNTAINS

CITY           SKY/WX    TMP DP  RH WIND       PRES   REMARKS
GALLUP         FAIR      30  21  69 CALM      30.05S
GRANTS         FAIR      31  26  80 CALM      30.07S
SILVER CITY    FAIR      43  29  56 NW10      30.07R

$$
NMZ407-409-411-412-301500-
SOUTHERN DESERTS

CITY           SKY/WX    TMP DP  RH WIND       PRES   REMARKS
DEMING         FAIR      40  32  73 W5        30.05R
LAS CRUCES     FAIR      46  37  71 W3        30.05R
HOLLOMAN AFB   FAIR      42  37  84 E3        30.06S
ALAMOGORDO       N/A    N/A N/A N/A MISG        N/A
T OR C         FAIR      42  29  59 W5        30.03S

$$
NMZ519>523-301500-
CENTRAL VALLEYS/CENTRAL HIGHLANDS

CITY           SKY/WX    TMP DP  RH WIND       PRES   REMARKS
ALBUQUERQUE    FAIR      41  36  82 CALM      30.03R
DOUBLE EAGLE   MOSUNNY   34  34 100 N3        30.03R
MORIARTY ARPT  FAIR      39  34  80 W5        30.02R
CLINES CORNERS FAIR      36  29  75 NW12      29.99R WCI  28
BELEN          FAIR      37  37 100 CALM      30.03R
SOCORRO        FAIR      39  38  95 CALM      30.03S

$$
NMZ524>526-539-540-301500-
SOUTHCENTRAL MOUNTAINS

CITY           SKY/WX    TMP DP  RH WIND       PRES   REMARKS
RUIDOSO        NOT AVBL

$$
NMZ527>531-301500-
NORTHEAST HIGHLANDS/NORTHEAST PLAINS

CITY           SKY/WX    TMP DP  RH WIND       PRES   REMARKS
LAS VEGAS      FAIR      36  30  79 NE3       29.93S
RATON          FAIR      30  26  85 NE7       29.90R WCI  23
CLAYTON        FAIR      43  36  76 W7        29.86R

$$
NMZ532>537-301500-
EASTCENTRAL PLAINS

CITY           SKY/WX    TMP DP  RH WIND       PRES   REMARKS
TUCUMCARI      FAIR      44  40  85 W3        29.86R
CANNON AFB     FAIR      44  44 100 W14       29.89R
CLOVIS AIRPORT FAIR      45  37  76 W16       29.88R

$$
NMZ028-029-538-301500-
SOUTHEAST PLAINS

CITY           SKY/WX    TMP DP  RH WIND       PRES   REMARKS
ROSWELL        FAIR      42  37  82 CALM        N/A
ARTESIA        FAIR      43  37  81 S5        29.95R
CARLSBAD       FAIR      43  34  70 CALM      29.94S
HOBBS          SUNNY     45  36  70 S8        29.96R


$$



USA.gov is the U.S. government's official web portal to all federal, state and local government web resources and services.